{"data":{"norad_id":66329,"intl_designator":"2025-253L","name":"STARLINK-35505","alt_names":[],"object_type":"PAYLOAD","status":"ACTIVE","operator":null,"country":"US","launch_date":"2025-11-06","launch_site_code":"AFETR","launch_vehicle":null,"mission":null,"orbit_class":"UNKNOWN","rcs_meters":null,"size_class":null,"mass_kg":null,"dimensions":null,"purposes":["comms"],"wikipedia_slug":null,"has_3d_model":false,"image_url":null,"decayed_at":null,"tle_current":{"epoch":"2026-05-25T01:20:15.834048Z","epoch_age_seconds":74270,"freshness":"FRESH","line1":"1 66329U 25253L   26145.05573882  .00017896  00000+0  65799-3 0  9998","line2":"2 66329  42.9984 141.2306 0001438 242.3613 117.7092 15.27594389 31923","mean_motion":15.27594389,"eccentricity":0.0001438,"inclination_deg":42.9984,"raan_deg":141.2306,"arg_perigee_deg":242.3613,"mean_anomaly_deg":117.7092,"bstar":0.00065799,"rev_number":3192,"period_min":94.265860778833,"perigee_km":482.01937817052,"apogee_km":483.99264290035,"semimajor_km":6861.1430105354,"source":"CELESTRAK","updated_at":"2026-05-25T13:38:21.168618Z"}}}